Location: ??????
(55.6500°N, 37.8000°E)
Time: 04:26:26
(UTC+00:00)

Cosmos 1151 Rocket - Pass Details

Date: 14 April 2024
Orbit: 589 x 611 km, 82.5° (Epoch: 20 May)

Event Time Altitude Azimuth Distance (km) Brightness Sun altitude
Exits shadow 01:04:01 - 194° (SSW) 2,068 5.3 -11.1°
Reaches altitude 10° 01:04:20 10° 194° (SSW) 1,941 5.2 -11.1°
Maximum altitude 01:08:38 82° 280° (W) 618 3.0 -10.6°
Drops below altitude 10° 01:13:01 10° 11° (N) 1,971 6.3 -10.1°
Sets 01:15:15 0° 12° (NNE) 2,883 7.2 -9.8°
